Location: Unspecified
(0.0000°N, 0.0000°E)
Time: 10:39:19
(UTC+00:00)

A-11 Canister half - Pass Details

Date: 08 August 2021
Orbit: 1526 x 1683 km, 47.3° (Epoch: 27 September)

Event Time Altitude Azimuth Distance (km) Brightness Sun altitude
Rises 20:17:01 0° 281° (W) 4,737 12.7 -31.4°
Reaches altitude 10° 20:21:47 10° 261° (W) 3,729 11.7 -32.6°
Maximum altitude 20:26:59 16° 226° (SW) 3,255 10.9 -33.8°
Drops below altitude 10° 20:32:10 10° 192° (SSW) 3,696 10.9 -35.0°
Enters shadow 20:33:03 - 187° (S) 3,849 11.0 -35.2°
